星链-4374 (STARLINK-4374 )

导读 | 豆包AI

STARLINK-4374是美国太空探索技术公司SpaceX星链卫星网络中的一员,于2022年8月31日发射升空,归属星链低轨互联网星座部署序列。星链计划旨在为全球提供全天候高速卫星互联网服务,STARLINK-4374是该星座大规模组网进程中,美国推进低轨卫星布局的一枚卫星,服务星座全球网络覆盖构建。

Basic Information
目录编号:
53652
目录名称:
STARLINK-4374
国际标识:
2022-105E
轨道中心:
EARTH
卫星名称:
星链-4374
卫星全名:
星链-4374 (STARLINK-4374 )
卫星状态:
在轨 (已飞行1337 天)
发射日期:
2022-08-31 UTC
国别 :
美国 (US)
星等 :
--
Orbit Information
数据来源 国际轨道数据 AOE轨道数据
星历时间 2026-04-29T14:09:44+0800
8小时前
查看轨道信息
2026-04-23T01:00:00+0800
6天前
查看轨道信息
半长轴 6927.625km 6927.61km
偏心率 0.0003176 0.000254
轨道倾角 97.559° 97.593°
近地点辐角 78.769° 69.962°
升交点赤经 359.908° 353.476°
平近点角 281.389° 97.888°
近地点 547.287km 547.713km
远地点 551.689km 551.233km
周期 95.639分钟 95.639分钟
每日圈数 15.056576 15.056627
Detailed Information
固有亮度:
5
最大亮度:
2.5
卫星平台:
Starlink v1.5
覆盖范围:
全球
运营商:
太空探索技术公司
运营商所在国:
美国
制造商(研发单位):
太空探索技术公司
制造商所在国:
美国
使用方式:
暂无
Satellite Introduction
星链(Starlink)计划是由太空探索技术公司(SpaceX)提出的一个巨型低轨卫星互联网星座项目,计划在2019年至2024年间在太空搭建由约1.2万颗卫星组成的“星链”网络,其中1584颗将部署在地球上空550千米处的近地轨道,并从2020年开始工作。该卫星仍在工作。
2D Orbit Map
3D Orbit Map
Orbit Altitude Analysis Chart
Orbit Inclination Analysis Chart
Orbit Comprehensive Analysis Chart
View Comprehensive Chart